STARLINK-1601 (46120 NORAD) Tracking and Keplerian Element Data

This shows tracking and keplerian element data for the satellite.

Feedback or suggestion? Click here.




ElementValue
Catalog46120
NameSTARLINK-1601
Epoch Orbit174
Epoch Day335.91670139
Epoch Year2020
RAAN317.2573
Inclination53.0006
Eccentricity0.000144
Argument of Perigee68.5986
Mean Anonmoly219.1777
Mean Motion15.05579626
Decay Rate-1.995E-05
L11 46120U 20057D 20335.91670139 -.00001995 00000-0 -11782-3 0 9994
L22 46120 53.0006 317.2573 0001440 68.5986 219.1777 15.05579626 1740

Live tracking and technical data element details for STARLINK-1601 (NORAD 46120). STARLINK-1601 can be tracked NOW for your location showing map with azimuth and elevation plus other details from your city location.

Track the satellite on the map from your city or location and see movement details for azimuth, elevation, latitude, longitude, range, height, and movement on the map or in text.







IsCatalogInMostPopularTable: catalog: 46120, numindb: 16
Update: records affected: 1



GetName: 46120 STARLINK-1601

Hit Count: updated at: Wed, 02 Dec 2020 05:27:31 GMT